Weather reports worldwide

Advertisment
Ahaus, Germany (10309): temperature & dewpoint: 01.08.2020 02:00:00 - 07.08.2020 02:00:00 (CEST)Ahaus, Germany (10309): temperature 5cm & temperature -5cm: 01.08.2020 02:00:00 - 07.08.2020 02:00:00 (CEST)Ahaus, Germany (10309): temperature -20cm & temperature -100cm: 01.08.2020 02:00:00 - 07.08.2020 02:00:00 (CEST)Ahaus, Germany (10309): wind speed & gusts: 01.08.2020 02:00:00 - 07.08.2020 02:00:00 (CEST)Ahaus, Germany (10309): wind direction: 01.08.2020 02:00:00 - 07.08.2020 02:00:00 (CEST)Ahaus, Germany (10309): reduced air pressure: 01.08.2020 02:00:00 - 07.08.2020 02:00:00 (CEST)Ahaus, Germany (10309): visibility: 01.08.2020 02:00:00 - 07.08.2020 02:00:00 (CEST)Ahaus, Germany (10309): sunshine duration: 01.08.2020 02:00:00 - 07.08.2020 02:00:00 (CEST)Ahaus, Germany (10309): precipitation: 01.08.2020 02:00:00 - 07.08.2020 02:00:00 (CEST)
Date & Time tt [°C] td [°C] tt 5cm [°C] tt -5cm [°C] tt -20cm [°C] tt -100cm [°C] ff [km/h] ff [kn] fx [km/h] fx [kn] dd ppp [hPa] vv [km] sd [min] rr [mm]
07.08.2020 02:00:00 14,4 13,0 13,0 23,4 25,7 19,1 6 3 19 10 ENE 1020,2 26 0 0,0
07.08.2020 01:00:00 15,5 13,8 14,0 24,3 26,2 19,0 3 2 5 3 ENE 1020,3 34 0 0,0
07.08.2020 00:00:00 16,6 14,6 14,8 25,4 26,7 19,0 3 1 4 2 E 1020,3 41 0 0,0
06.08.2020 23:00:00 18,0 15,2 16,0 26,7 27,1 19,0 0 0 4 2 N 1019,9 43 0 0,0
06.08.2020 22:00:00 20,0 15,7 17,3 28,4 27,4 19,0 3 2 5 3 NE 1019,7 2,4 0 0,0
06.08.2020 21:00:00 25,0 14,4 21,1 30,6 27,5 19,0 4 2 9 5 E 1019,1 55 43 0,0
06.08.2020 20:00:00 29,5 12,3 26,9 32,6 27,4 19,0 4 2 9 5 E 1018,9 58 60 0,0
06.08.2020 19:00:00 30,7 10,4 31,0 34,0 27,2 19,0 3 2 11 6 ESE 1018,8 71 60 0,0
06.08.2020 18:00:00 31,6 10,4 33,5 34,9 26,7 19,0 4 2 11 6 S 1018,9 52 59 0,0
06.08.2020 17:00:00 30,7 9,2 33,1 35,5 26,1 19,0 9 5 22 12 ESE 1019,1 69 60 0,0
06.08.2020 16:00:00 30,5 9,4 34,8 35,3 25,4 19,0 9 5 22 12 SSW 1019,1 75 60 0,0
06.08.2020 15:00:00 30,3 9,2 37,1 34,5 24,6 19,0 5 3 22 12 SW 1019,2 73 60 0,0
06.08.2020 14:00:00 29,5 9,0 36,3 33,0 23,8 19,0 10 5 23 12 SW 1019,7 56 60 0,0
06.08.2020 13:00:00 28,9 10,1 34,3 31,2 23,1 19,0 14 7 23 13 SSW 1019,8 59 60 0,0
06.08.2020 12:00:00 27,6 10,2 33,9 28,9 22,5 19,0 13 7 23 12 SSW 1019,9 54 60 0,0
06.08.2020 11:00:00 26,5 10,5 31,3 26,3 22,0 19,0 15 8 28 15 SSW 1019,6 57 60 0,0
06.08.2020 10:00:00 24,9 10,3 29,2 23,8 21,8 19,0 16 9 26 14 SSW 1019,4 72 60 0,0
06.08.2020 09:00:00 22,7 9,7 25,1 21,5 21,8 18,9 12 7 24 13 SSW 1019,1 62 60 0,0
06.08.2020 08:00:00 19,9 9,3 21,0 19,8 22,0 18,9 13 7 18 10 S 1018,9 47 60 0,0
06.08.2020 07:00:00 16,2 9,1 14,2 19,2 22,3 18,9 12 6 16 9 SSE 1018,5 50 23 0,0
06.08.2020 06:00:00 15,8 8,8 11,8 19,5 22,7 18,9 12 7 16 9 SSE 1017,8 55 0 0,0
06.08.2020 05:00:00 15,0 9,9 10,9 19,9 23,1 18,9 10 5 14 7 S 1017,5 54 0 0,0
06.08.2020 04:00:00 13,6 10,2 11,0 20,4 23,5 18,9 9 5 22 12 SSE 1017,2 47 0 0,0
06.08.2020 03:00:00 12,8 11,0 11,1 21,0 23,9 18,9 6 3 23 12 SE 1017,1 40 0 0,0
06.08.2020 02:00:00 13,3 11,4 11,4 21,8 24,3 18,9 4 2 11 6 SE 1016,8 40 0 0,0
06.08.2020 01:00:00 14,1 12,3 12,4 22,6 24,8 18,9 5 3 7 4 ESE 1016,9 39 0 0,0
06.08.2020 00:00:00 14,6 12,8 12,9 23,6 25,2 18,9 4 2 19 10 SE 1016,7 43 0 0,0
05.08.2020 23:00:00 16,0 13,1 13,8 24,8 25,6 18,9 2 1 19 10 SE 1016,5 54 0 0,0
05.08.2020 22:00:00 17,9 13,9 15,1 26,5 25,9 18,9 0 0 17 9 N 1016,0 9 0 0,0
05.08.2020 21:00:00 22,7 13,4 18,6 28,7 26,1 18,9 3 2 9 5 ESE 1015,5 52 46 0,0
05.08.2020 20:00:00 27,2 9,2 25,0 30,7 26,0 18,9 5 3 17 9 SSW 1015,3 75 60 0,0
05.08.2020 19:00:00 28,0 8,0 28,8 32,1 25,7 18,9 8 5 23 12 SW 1015,3 61 60 0,0
05.08.2020 18:00:00 28,1 7,1 30,3 32,9 25,2 18,9 9 5 27 14 SW 1015,3 75 60 0,0
05.08.2020 17:00:00 27,7 7,0 30,6 33,3 24,6 18,9 14 8 29 16 SSW 1015,3 52 60 0,0
05.08.2020 16:00:00 27,3 6,8 31,6 32,9 23,9 18,9 15 8 31 17 SSW 1015,7 40 60 0,0
05.08.2020 15:00:00 27,5 9,0 33,0 32,2 23,2 18,9 16 8 30 16 S 1015,9 61 60 0,0
05.08.2020 14:00:00 26,1 8,0 32,0 30,7 22,4 18,9 14 8 36 20 WSW 1016,1 57 60 0,0
05.08.2020 13:00:00 25,6 8,7 31,2 28,8 21,8 18,9 18 10 39 21 SSW 1016,4 75 60 0,0
05.08.2020 12:00:00 24,0 8,5 28,8 26,7 21,2 18,9 21 11 39 21 SW 1016,5 65 60 0,0
05.08.2020 11:00:00 22,8 8,9 27,7 24,6 20,8 18,9 21 11 39 21 SW 1016,7 73 60 0,0
05.08.2020 10:00:00 20,9 8,8 24,4 21,9 20,5 18,9 19 11 32 18 SSW 1016,9 50 60 0,0
05.08.2020 09:00:00 18,6 8,4 21,1 19,7 20,6 18,9 17 9 26 14 SSW 1016,6 52 60 0,0
05.08.2020 08:00:00 16,3 7,7 17,7 18,1 20,8 18,9 16 9 22 12 S 1016,5 57 49 0,0
05.08.2020 07:00:00 14,4 6,8 13,5 17,7 21,1 18,9 13 7 19 11 S 1016,1 59 0 0,0
05.08.2020 06:00:00 14,0 6,7 12,7 17,9 21,4 18,9 15 8 22 12 S 1015,6 58 0 0,0
05.08.2020 05:00:00 13,4 6,8 11,9 18,3 21,7 18,9 12 6 20 11 SSE 1015,7 61 0 0,0
05.08.2020 04:00:00 13,0 6,8 11,9 18,8 22,1 18,9 14 8 18 10 SSE 1016,0 60 0 0,0
05.08.2020 03:00:00 13,4 7,2 11,6 19,4 22,4 18,9 12 6 16 9 SSE 1016,3 75 0 0,0
05.08.2020 02:00:00 12,9 8,1 10,2 20,1 22,8 18,9 11 6 14 8 SSE 1016,5 68 0 0,0
05.08.2020 01:00:00 13,2 9,3 12,6 20,7 23,2 18,9 9 5 10 5 SE 1016,5 55 0 0,0
05.08.2020 00:00:00 12,6 9,8 11,1 21,3 23,6 18,9 6 4 9 5 SE 1016,7 61 0 0,0
04.08.2020 23:00:00 13,7 10,0 12,8 22,2 24,0 18,9 5 3 6 4 ESE 1017,0 62 0 0,0
04.08.2020 22:00:00 13,4 10,2 10,9 23,5 24,3 18,9 4 2 19 10 SE 1017,2 28 0 0,0
04.08.2020 21:00:00 16,3 9,1 13,6 25,5 24,4 18,9 4 2 19 10 W 1016,9 75 38 0,0
04.08.2020 20:00:00 20,6 6,2 20,4 27,4 24,4 18,9 6 3 16 9 WNW 1016,6 75 60 0,0
04.08.2020 19:00:00 21,5 6,3 23,0 28,5 24,2 18,9 8 4 22 12 W 1016,3 75 53 0,0
04.08.2020 18:00:00 21,4 8,6 24,9 29,0 24,0 18,9 9 5 24 13 WNW 1016,5 75 40 0,0
04.08.2020 17:00:00 20,6 9,6 22,8 29,1 23,7 18,9 10 5 23 12 NNW 1016,7 75 18 0,0
04.08.2020 16:00:00 20,6 9,0 24,2 29,7 23,2 18,9 12 6 22 12 WNW 1016,8 62 30 0,0
04.08.2020 15:00:00 21,0 9,4 30,3 29,2 22,6 18,9 7 4 23 13 W 1016,9 75 34 0,0
04.08.2020 14:00:00 20,8 9,5 29,7 27,8 22,1 18,9 12 6 26 14 W 1017,0 48 22 0,0
04.08.2020 13:00:00 20,0 8,5 24,4 28,6 21,4 18,9 13 7 26 14 SSW 1016,8 75 58 0,0
04.08.2020 12:00:00 19,5 9,5 27,5 24,8 21,0 18,9 11 6 18 10 SW 1017,0 44 35 0,0
04.08.2020 11:00:00 17,6 9,5 25,9 23,3 20,6 18,9 16 9 22 12 NW 1017,0 56 37 0,0
04.08.2020 10:00:00 16,6 12,2 23,2 21,6 20,4 18,9 10 5 14 7 W 1017,2 26 60 0,0
04.08.2020 09:00:00 14,0 11,5 20,6 19,2 20,5 18,9 9 5 14 7 W 1017,0 17 60 0,0
04.08.2020 08:00:00 11,9 10,8 15,5 17,7 20,7 18,9 7 4 21 12 W 1016,6 9 21 0,0
04.08.2020 07:00:00 9,6 9,2 9,1 17,3 21,1 18,9 8 4 11 6 W 1016,2 1,6 0 0,0
04.08.2020 06:00:00 9,0 8,6 7,1 17,5 21,4 18,9 8 5 11 6 W 1015,7 7 0 0,0
04.08.2020 05:00:00 9,9 9,5 7,8 18,1 21,8 18,9 7 4 27 14 W 1015,3 7 0 0,0
04.08.2020 04:00:00 11,3 10,8 8,3 18,9 22,2 18,9 8 4 24 13 WNW 1015,3 2,0 0 0,0
04.08.2020 03:00:00 12,6 11,8 9,8 19,8 22,5 18,9 9 5 11 6 NW 1015,1 9 0 0,0
04.08.2020 02:00:00 13,4 12,2 12,6 20,5 22,8 18,9 10 5 27 14 WNW 1015,4 18 0 0,0
04.08.2020 01:00:00 14,2 12,3 13,5 21,2 23,1 18,9 7 4 9 5 NW 1015,1 26 0 0,0
04.08.2020 00:00:00 14,5 12,3 14,3 21,6 23,4 18,9 8 4 12 7 NW 1014,7 38 0 0,0
03.08.2020 23:00:00 14,9 12,0 14,5 22,3 23,8 18,9 8 4 14 8 NW 1014,2 47 0 0,0
03.08.2020 22:00:00 14,9 11,4 13,5 23,2 24,1 18,9 9 5 10 6 NW 1013,8 59 0 0,0
03.08.2020 21:00:00 16,5 11,4 15,5 24,6 24,3 18,9 3 1 13 7 NNE 1013,5 73 0 0,0
03.08.2020 20:00:00 17,4 10,6 17,6 26,2 24,4 18,9 9 5 23 12 N 1013,2 75 37 0,0
03.08.2020 19:00:00 17,9 10,3 19,9 27,0 24,5 18,9 13 7 30 16 N 1013,1 47 36 0,0
03.08.2020 18:00:00 17,4 11,1 18,8 27,8 24,4 18,9 19 10 36 19 NNE 1012,9 55 3 0,0
03.08.2020 17:00:00 19,0 10,5 21,1 30,5 24,0 18,9 23 12 36 19 N 1012,8 56 18 0,0
03.08.2020 16:00:00 21,8 8,8 25,3 31,4 23,4 18,8 8 4 13 7 NE 1012,7 61 44 0,0
03.08.2020 15:00:00 22,0 8,8 27,9 30,8 22,7 18,8 4 2 14 8 WSW 1013,2 75 59 0,0
03.08.2020 14:00:00 21,0 8,3 27,3 29,8 21,9 18,8 5 3 15 8 SE 1013,7 69 48 0,0
03.08.2020 13:00:00 20,2 9,3 25,7 27,7 21,3 18,8 5 3 16 9 SSW 1013,9 74 59 0,0
03.08.2020 12:00:00 19,3 9,5 27,2 25,4 20,8 18,8 6 3 14 8 ESE 1014,3 75 60 0,0
03.08.2020 11:00:00 19,0 10,8 24,4 23,3 20,4 18,8 8 5 15 8 SW 1014,6 59 57 0,0
03.08.2020 10:00:00 17,2 11,2 20,6 21,0 20,2 18,8 8 5 13 7 SE 1014,7 55 56 0,0
03.08.2020 09:00:00 14,9 11,5 17,6 18,6 20,3 18,8 8 4 12 6 SSW 1014,9 31 39 0,0
03.08.2020 08:00:00 12,2 10,0 14,6 17,3 20,5 18,8 10 6 29 15 S 1014,9 31 49 0,0
03.08.2020 07:00:00 9,4 8,5 11,3 16,4 20,8 18,8 8 4 11 6 SE 1015,1 22 28 0,0
03.08.2020 06:00:00 7,3 7,0 5,7 16,5 21,2 18,8 7 4 24 13 S 1015,3 15 0 0,0
03.08.2020 05:00:00 7,4 6,8 5,9 17,0 21,6 18,7 6 4 25 13 SSE 1015,2 22 0 0,0
03.08.2020 04:00:00 7,9 7,5 5,9 17,5 22,0 18,7 7 4 27 14 SSE 1015,3 26 0 0,0
03.08.2020 03:00:00 8,3 7,6 6,4 18,2 22,5 18,7 6 3 26 14 SSE 1015,4 30 0 0,0
03.08.2020 02:00:00 9,2 8,5 7,2 18,9 22,9 18,7 6 3 18 10 SSE 1015,6 34 0 0,0
03.08.2020 01:00:00 9,9 8,9 7,7 19,7 23,4 18,7 5 3 8 4 N 1015,8 49 0 0,0
03.08.2020 00:00:00 10,7 9,5 8,6 20,7 23,8 18,7 5 3 20 11 NNW 1015,7 49 0 0,0
02.08.2020 23:00:00 12,1 10,6 9,8 21,9 24,3 18,7 4 2 8 4 NNW 1015,8 48 0 0,0
02.08.2020 22:00:00 14,8 10,8 11,5 23,5 24,6 18,7 6 3 13 7 NW 1015,8 9 0 0,0
02.08.2020 21:00:00 18,6 10,0 17,1 25,4 24,7 18,7 10 5 26 14 NNW 1015,3 63 51 0,0
02.08.2020 20:00:00 20,2 9,4 20,1 27,1 24,7 18,7 16 8 27 15 NNW 1014,7 64 60 0,0
02.08.2020 19:00:00 21,2 9,8 22,6 28,3 24,5 18,7 18 10 34 18 NNW 1014,4 58 56 0,0
02.08.2020 18:00:00 22,1 10,6 25,4 27,8 24,3 18,6 16 8 31 17 NW 1014,4 46 33 0,0
02.08.2020 17:00:00 22,2 11,0 26,5 27,7 24,2 18,6 16 9 34 18 NW 1014,1 58 28 0,0
02.08.2020 16:00:00 22,2 13,1 27,6 26,2 24,1 18,6 18 10 34 18 NW 1014,4 39 6 0,0
02.08.2020 15:00:00 19,1 15,7 20,6 26,7 24,0 18,6 7 4 32 18 W 1014,5 42 0 0,2
02.08.2020 14:00:00 21,9 14,9 25,3 29,4 23,6 18,6 11 6 19 11 SW 1014,1 28 33 0,0
02.08.2020 13:00:00 20,8 14,5 27,1 27,9 23,1 18,6 11 6 23 13 W 1014,5 32 18 0,0
02.08.2020 12:00:00 20,6 14,5 26,4 27,2 22,7 18,6 16 9 27 15 W 1014,5 30 43 0,0
02.08.2020 11:00:00 21,3 14,0 27,1 25,6 22,4 18,5 12 6 27 14 WSW 1014,3 50 60 0,0
02.08.2020 10:00:00 20,0 13,6 23,8 23,5 22,3 18,5 18 10 27 15 SSW 1014,3 49 59 0,0
02.08.2020 09:00:00 18,2 14,4 21,6 21,5 22,4 18,5 14 8 21 12 WSW 1014,2 26 39 0,0
02.08.2020 08:00:00 16,1 15,2 17,2 20,4 22,6 18,5 9 5 10 6 S 1014,4 7 4 0,0
02.08.2020 07:00:00 14,9 14,5 13,9 20,1 22,9 18,5 8 5 13 7 SSW 1014,3 3,4 0 0,0
02.08.2020 06:00:00 14,3 13,9 12,5 20,5 23,2 18,5 6 4 20 11 ESE 1014,4 5 0 0,0
02.08.2020 05:00:00 14,8 14,2 13,5 21,0 23,6 18,4 5 3 20 11 WSW 1014,4 6 0 0,0
02.08.2020 04:00:00 15,4 14,5 13,7 21,5 23,9 18,4 5 3 11 6 WSW 1014,7 6 0 0,0
02.08.2020 03:00:00 15,8 15,0 13,7 22,0 24,3 18,4 8 5 11 6 WNW 1014,8 11 0 0,0
02.08.2020 02:00:00 16,7 16,0 16,2 22,6 24,7 18,4 9 5 14 8 W 1015,3 9 0 0,0
02.08.2020 01:00:00 16,9 16,3 14,4 23,4 25,1 18,4 6 3 10 5 W 1015,0 7 0 0,0
02.08.2020 00:00:00 18,1 16,8 16,4 24,5 25,4 18,4 3 2 19 11 W 1014,9 8 0 0,0
01.08.2020 23:00:00 20,0 17,3 19,1 25,3 25,8 18,4 8 4 15 8 N 1014,8 18 0 0,0
01.08.2020 22:00:00 20,8 17,7 19,7 26,7 26,0 18,3 9 5 25 14 NW 1015,3 20 0 0,0
01.08.2020 21:00:00 22,7 18,1 22,9 28,3 26,2 18,3 15 8 29 16 NW 1014,6 23 3 0,0
01.08.2020 20:00:00 25,5 17,8 26,6 29,8 26,1 18,3 14 8 24 13 W 1013,7 44 16 0,0
01.08.2020 19:00:00 26,1 17,4 27,2 31,2 25,9 18,3 11 6 20 11 W 1013,6 44 21 0,0
01.08.2020 18:00:00 27,5 16,9 30,6 32,7 25,5 18,3 10 5 19 11 W 1013,5 33 58 0,0
01.08.2020 17:00:00 27,3 17,9 32,2 32,2 24,9 18,3 10 5 23 12 WNW 1013,9 47 49 0,0
01.08.2020 16:00:00 27,6 17,9 33,6 32,5 24,3 18,3 13 7 24 13 WNW 1013,8 35 60 0,0
01.08.2020 15:00:00 27,4 18,3 33,9 30,2 23,8 18,2 13 7 23 13 W 1013,8 27 20 0,0
01.08.2020 14:00:00 25,7 17,5 29,7 28,4 23,4 18,2 13 7 26 14 WSW 1014,2 26 2 0,0
01.08.2020 13:00:00 24,8 18,2 28,4 27,1 23,1 18,2 12 6 32 17 WSW 1014,3 22 10 0,0
01.08.2020 12:00:00 24,0 18,0 26,5 26,2 22,8 18,2 17 9 33 18 SW 1014,2 24 27 0,0
01.08.2020 11:00:00 22,9 18,4 23,9 24,0 22,8 18,2 16 9 26 14 SW 1013,7 24 0 0,0
01.08.2020 10:00:00 22,5 18,2 24,2 23,3 22,8 18,1 11 6 22 12 SW 1012,9 27 6 0,0
01.08.2020 09:00:00 20,5 18,0 20,7 22,5 22,9 18,1 12 7 19 11 WSW 1012,6 32 2 0,0
01.08.2020 08:00:00 18,8 17,6 18,6 21,8 23,1 18,1 9 5 14 8 SE 1012,2 15 0 0,7
01.08.2020 07:00:00 19,5 15,5 17,9 21,7 23,3 18,1 9 5 19 11 SSW 1013,2 32 0 0,1
01.08.2020 06:00:00 18,6 14,3 17,9 21,7 23,6 18,1 6 3 13 7 WSW 1012,8 56 0 0,0
01.08.2020 05:00:00 17,1 14,1 15,8 21,9 24,0 18,1 3 2 11 6 SSE 1012,4 64 0 0,0
01.08.2020 04:00:00 20,1 13,5 17,1 22,4 24,3 18,1 6 3 14 8 ESE 1012,2 63 0 0,0
01.08.2020 03:00:00 20,7 13,5 17,6 23,1 24,7 18,1 8 4 13 7 E 1012,8 55 0 0,0
01.08.2020 02:00:00 21,5 13,6 18,6 23,8 25,1 18,0 8 4 15 8 E 1013,2 56 0 0,0

tt = temperature
td = dewpoint
tt 5cm = temperature 5cm
tt -5cm = temperature -5cm
tt -20cm = temperature -20cm
tt -100cm = temperature -100cm
ff = wind speed
fx = gusts
dd = wind direction
ppp = reduced air pressure
vv = visibility
sd = sunshine duration
rr = precipitation

Next stations